Showing default

IRIDIUM 134, 43075

Orbit data source: Space-Track

IRIDIUM 134, 43075 is a payload satellite owned by Iridium (US) in LEO that was launched on Sat, 23 Dec 2017 UTC via an FALCON 9 launch vehicle from the Air Force Western Test Range (AFWTR). Payloads include a variety of satellites, spacecraft, and rockets equipped with specific instruments for various scientific and technological missions. These include communications satellites like Starlink; space stations such as the ISS; scientific satellites like the Hubble; Earth observation satellites from companies like Planet Labs, Umbra, and HawkEye 360; GPS; miniature CubeSats for education and research; and military/defense satellites.

Loading next visibility...
IRIDIUM 134 details
Identifier
43075, 2017-083F
Orbit
LEO
Last TLE update11 hours ago
Origin
Flag of USIridium (US)
ManufacturerOATK SSG Gilbert
MissionOperational Commercial Communications
Bus & MotorELITEBUS, Unknown motor
Mass860 kg wet, 700 kg dry
Launch date (UTC)
2017-12-23 (7 years ago)
Launch vehicle
FALCON 9
Launch site
Air Force Western Test Range (AFWTR)
Object type
Payload
Rocket body
Debris
Shape & HBRTrap Box + 2 Pan, 9.4 m
Radar Cross Section14.423 m², Large (>1 m²)

Expand to show TLE details & history

TLE from 11 hours ago
0 IRIDIUM 134
1 43075U 17083F   24361.07137586  .00000067  00000-0  17017-4 0  9994
2 43075  86.3989 186.9463 0001897  92.7199 267.4214 14.34217620366970
Epoch: 2024-12-26T01:42Z
Definitive object data (Epoch: 2024-12-26T01:42:46.874Z)
Latitude-0.00001°
Longitude66.19496°
Altitude780.78 km
Speed7.463 km/s
True Right ascension12h 27m 47s
True Declination0° 00' 00"
Sunlit
Object was in daylight at TLE epoch
Visualization TLE readout
Latitude-56.73713°
Longitude-108.52275°
Altitude800.861 km
Speed7.451 km/s
Apparent Right ascension00h 29m 06s
Apparent Declination-48° 44' 14"
Sunlit
Object is in daylight
Visualization observer readout
Local Sidereal Time12:13:10
Azimuth196.537° SSW
Elevation-80.733°
Doppler factor1
Orbital elements
Apogee altitude775.989 km
Perigee altitude773.275 km
Semi-major axis7,152.769 km
Eccentricity0.0001897
Inclination86.3989°
RAAN186.9463°
Arg. of periapsis92.7199°
True anomaly267.39968°
Mean anomaly267.4214°
Eccentric anomaly267.41054°
Mean motion3.58783 °/min
BSTAR0.000017017
Orbital period100.34 mins
Loading maneuver chart data...
Loading historical data...
Loading historical data...
Loading historical data...
Loading historical data...
Loading historical data...
Loading historical data...
Loading historical data...

IRIDIUM 134 Visibility forecast

Observer location: undefined°, undefined

Span
Click to sort rows by Start time (UTC) header in descending order
Start Az.
Max El. time (UTC)
Max El. Az.
Max El.
End time (UTC)
End Az.
9 mins2024-12-26 13:32:35.400Z196.739° SSW2024-12-26 13:37:35.400Z293.057° NW39.88°2024-12-26 13:41:35.400Z352.146° N
7 mins2024-12-27 00:04:35.400Z27.283° NE2024-12-27 00:07:35.400Z79.519° E29.63°2024-12-27 00:11:35.400Z142.15° SSE
6 mins2024-12-27 01:45:35.400Z317.725° NNW2024-12-27 01:48:35.400Z270.016° WNW22.754°2024-12-27 01:51:35.400Z229.619° WSW
|